sat.trackr.live / text

‹ back to catalog

AUTCUBE 2

NORAD 43681 · 2018-084K

PAYLOAD ACTIVE UNKNOWN

§ Identity

Operator
Country
JPN
Launch date
2018-10-29
Launch site
TANSC
Launch vehicle
Mass (kg)
RCS (m²)

External: N2YO · Heavens-Above · Gunter

§ Orbital elements

Epoch: 2026-09-20T00:49:51.505824Z

Period
95.33 min
Inclination
98.0609°
Eccentricity
0.0010341
Mean motion
15.10616752 rev/d
Perigee alt
527.2 km
Apogee alt
541.5 km
Semi-major
6,912.5 km
B*
1.0795e-4
RAAN
114.2385°
Arg perigee
82.5128°
Mean anomaly
277.7275°
Rev number
43,124

§ Raw data

AUTCUBE 21 43681U 18084K   26263.03462391  .00001714  00000+0  10795-3 0  99972 43681  98.0609 114.2385 0010341  82.5128 277.7275 15.10616752431240

JSON: /api/v1/satellites/43681 · /tle

For live sub-satellite position, see the globe view (requires WebGL).

§ Visibility from observer

Set your observer location to see the next 7 days of passes ≥ 10°. The values pass through the URL so the page stays shareable.

No JS? Fill the form by hand. The geolocation button needs JavaScript.

§ Radio — SatNOGS DB

ModeDescriptionDownlinkUplink
FSK Telemetry FSK9k6 437.385 MHz
WSJT WSJT 437.505 MHz

2 transmitters · refreshed weekly from db.satnogs.org